Погода в Ревелстоке

Канада     51°00′37″N   118°12′38″W
темп.,
°C
ветер,
м/с
пор.,
м/с
влажн.,
%
обл.,
%
осадки,
мм/ч
давл.,
гПа
погр.,
м
7 мая, пт
пт723:00+5сз1195100 0.6 100846
02:00+5зюз1298100 6.9 1010166
05:00+2юз2398100 10.2 1013210
08:00+2юз2297100 3.2 1013252
11:00+6юз2371100 3.7 10121224
14:00+7юз2267100 1.1 10121103
17:00+7юз1260100 2.0 10101086
20:00+3з2285100 0.8 101252
8 мая, сб
сб823:00+2з2293100 1.3 1014139
02:00+1з2399100 0.8 1015149
05:00+1зсз1299100 1.9 1016133
08:00+2з1296100 0.4 1017246
11:00+5зюз227699 0.9 10171050
14:00+6зюз226797 0.8 10171066
17:00+7зюз126499 1.4 10161073
20:00+4ю0082100 0.2 101710
9 мая, вс
вс923:00+1с019193 0.2 101910
02:000с119344 0.0 102010
05:00−2зсз119332 0.0 102211
08:00+4з117597 0.0 1020343
11:00+9зюз115491 0.1 10171265
14:00+11з114398 0.3 10151821
17:00+11з124094 0.5 10151869
20:00+7сз016427 0.1 101510
10 мая, пн
пн1023:00+3св017921 0.1 101810
02:00+2в118579 0.0 101910
05:00+1в118981 0.0 102110
08:00+6юв006910 0.0 1020357
11:00+12зюз114713 0.1 10181475
14:00+13юз224392 0.8 10161831
17:00+13юз133931 1.1 10152049
20:00+9ююз11619 0.1 101610
11 мая, вт
вт1123:00+6ю007184 0.1 101810
02:00+4вюв118061 0.0 102010
05:00+3вюв118562 0.0 102110
08:00+8юв116444 0.0 1019323
11:00+15юз114066 0.1 10171981
14:00+15юз113693 0.0 10152053
17:00+15зсз1236100 0.0 10142119
20:00+11св11545 0.0 101510